Location: Canazei
(46.4667°N, 11.7667°E)
Time: 05:50:45
(UTC+00:00)

Cosmos 1378 Rocket - Pass Details

Date: 21 April 2021
Orbit: 600 x 628 km, 82.5° (Epoch: 14 May)

Event Time Altitude Azimuth Distance (km) Brightness Sun altitude
Exits shadow 02:42:23 - 175° (S) 2,342 6.2 -15.0°
Reaches altitude 10° 02:43:16 10° 173° (S) 1,990 5.9 -14.9°
Maximum altitude 02:47:36 58° 95° (E) 730 4.2 -14.3°
Drops below altitude 10° 02:51:55 10° 17° (NNE) 1,990 6.9 -13.7°
Sets 02:54:10 0° 13° (NNE) 2,896 7.8 -13.4°
